Theta_e
350 350 359 357 361 361 360 359 360 360 361 361 360 360 360 360 359 360 359 358 359 358 357 356 354 353 352 352 352 352 351 350 349 347 344 344 343 343 342 341 343 341 343
351 353 360 358 360 361 360 359 360 360 361 361 359 359 359 359 359 359 359 359 358 356 356 356 357 356 354 352 352 351 350 349 347 345 344 345 343 342 341 340 345 343 344
350 358 352 358 359 360 360 359 359 359 360 359 359 359 358 358 358 358 358 358 357 356 356 356 355 355 354 353 353 352 351 350 350 351 352 349 346 344 343 343 343 343 343
352 359 354 359 358 359 359 359 358 358 358 358 358 358 358 358 358 358 358 358 357 356 355 355 354 353 352 351 351 351 351 352 353 355 356 353 349 346 345 344 344 344 343
351 356 362 359 358 357 358 358 358 358 357 357 357 357 357 357 358 357 357 357 357 356 356 356 355 355 354 353 352 352 353 353 354 351 349 352 353 349 347 346 345 345 345
352 355 359 359 358 356 355 356 357 357 357 357 357 357 356 356 356 357 357 357 356 357 356 355 355 355 354 354 354 355 355 354 354 350 347 349 349 352 349 348 348 345 345
353 356 357 358 357 357 355 355 355 355 356 357 356 355 355 355 355 356 357 357 357 357 357 358 358 357 356 356 356 355 355 355 352 349 348 349 350 349 347 352 350 348 347
353 355 358 360 360 359 357 357 356 356 356 355 356 356 356 356 355 355 355 354 355 355 356 356 356 357 357 357 357 356 356 355 351 351 351 351 353 350 348 351 354 349 348
348 349 354 357 360 360 359 356 355 354 354 354 355 355 355 355 355 355 355 355 354 354 355 356 357 358 358 357 356 356 356 355 353 351 347 350 354 350 352 352 355 352 350
344 344 346 348 348 353 356 358 357 357 357 357 357 357 356 356 355 355 356 355 354 354 355 357 358 358 358 357 357 357 355 355 350 349 346 350 350 349 352 352 355 356 354
345 347 351 351 348 350 350 352 351 352 351 352 354 355 353 352 352 352 355 352 351 353 354 357 357 357 357 356 356 355 355 351 349 346 344 348 343 351 355 355 355 357 356
341 344 349 351 352 351 347 351 354 353 354 353 353 357 356 352 352 349 348 351 353 352 353 353 355 357 356 355 353 355 352 347 347 345 343 346 344 345 348 355 358 357 357
342 346 349 350 351 350 347 348 347 348 350 353 354 356 355 355 357 354 354 351 349 346 345 349 353 355 354 351 347 348 348 345 344 345 348 343 342 345 348 350 358 360 358
341 342 345 348 348 348 342 337 338 336 340 338 345 352 351 347 348 346 343 343 342 342 342 344 347 351 354 354 353 352 350 346 342 342 345 345 344 345 347 350 354 358 357
340 342 341 341 344 344 343 339 339 338 335 340 340 343 341 340 341 339 340 339 337 338 339 338 340 343 347 348 350 349 346 343 342 340 338 346 344 344 344 349 352 357 359
339 335 337 338 343 340 343 344 342 341 338 337 337 340 341 339 340 336 336 335 335 336 336 335 335 336 337 338 338 339 338 338 338 338 336 339 346 343 344 349 351 354 359
333 336 339 339 339 341 340 340 340 338 336 335 335 340 340 341 340 341 332 333 335 337 336 335 335 335 333 333 334 334 334 334 333 335 335 336 339 343 345 351 352 352 356
331 336 339 335 336 340 342 340 338 337 337 336 335 335 337 334 335 334 327 328 330 332 332 333 332 331 331 332 332 332 332 332 332 333 335 339 338 340 349 352 353 353 355
333 334 335 338 336 338 340 339 339 340 336 334 334 330 334 332 331 334 326 328 333 327 327 329 330 332 330 329 328 330 331 330 331 329 339 341 345 344 344 347 352 353 354
332 335 336 336 339 341 338 338 333 332 332 333 331 330 332 331 330 332 328 330 333 325 324 326 331 330 328 326 323 326 329 329 333 335 340 341 344 348 348 349 352 350 351
333 335 336 335 339 338 333 330 328 326 327 327 329 331 332 330 330 332 329 329 330 328 327 328 325 323 320 326 325 322 324 329 331 335 341 340 342 343 343 344 349 352 346
333 336 336 337 339 339 335 333 332 330 329 328 329 331 332 330 329 329 329 329 330 327 329 328 327 321 318 319 315 314 312 317 325 330 336 339 339 338 337 338 344 347 348
332 334 335 338 340 341 340 336 334 333 331 327 326 325 326 326 325 326 326 325 327 328 324 327 325 324 317 317 321 315 309 308 314 328 332 333 338 337 335 335 340 342 345
331 334 335 333 333 332 333 330 328 323 320 321 319 320 321 323 323 323 323 323 323 322 323 328 325 325 323 317 316 320 322 319 313 313 327 329 332 334 335 333 337 339 342
325 324 324 326 327 326 326 325 321 320 319 318 318 320 322 322 320 319 320 321 321 320 321 322 325 328 324 319 316 315 319 321 321 316 312 320 322 330 331 333 335 337 338
320 320 321 323 324 324 323 323 322 320 319 316 317 315 315 315 316 318 318 319 320 319 319 319 321 323 327 323 320 319 317 319 319 319 315 316 313 318 329 332 331 330 331
Wind_Speed
6 14 9 8 7 8 11 12 12 12 11 11 11 10 10 9 10 11 11 10 9 10 11 10 10 9 9 9 9 9 9 9 8 8 7 8 7 6 6 2 5 12 8
10 13 10 8 7 8 8 10 10 10 10 10 10 9 9 9 9 9 9 9 8 8 8 9 8 8 7 7 7 7 7 7 7 6 3 8 7 5 4 2 8 10 7
8 10 12 8 7 7 7 8 9 10 9 9 10 9 8 7 8 8 8 7 7 6 6 6 6 5 4 4 4 4 5 5 5 6 8 4 10 5 4 2 3 4 4
7 7 10 9 8 7 7 7 8 8 9 9 8 8 8 7 7 7 7 7 6 6 5 4 3 3 2 1 1 2 3 4 6 8 12 3 2 10 5 3 3 3 4
6 7 13 7 6 6 7 6 7 7 7 8 8 6 6 5 5 5 4 5 4 4 5 5 4 4 3 3 3 4 5 5 7 11 7 5 4 14 8 6 7 6 5
7 7 12 9 7 6 5 4 3 3 3 4 5 5 4 4 4 4 4 4 5 6 5 4 5 5 4 4 5 6 8 8 10 14 4 3 6 12 8 8 8 4 5
7 8 13 7 8 8 7 7 5 3 0 2 2 3 4 4 5 5 5 5 6 7 6 7 6 6 6 5 6 7 8 10 13 12 6 6 7 8 3 11 11 9 8
8 6 10 9 7 6 6 8 8 10 10 9 8 8 8 8 7 7 7 7 8 9 9 9 9 8 8 8 8 8 9 9 13 12 7 7 8 6 4 11 13 11 10
6 8 6 8 8 7 6 3 3 3 2 2 4 5 6 7 8 8 8 9 9 10 10 11 10 11 10 10 10 10 10 10 12 10 7 6 11 3 6 9 15 15 14
7 7 7 4 7 7 10 5 3 2 2 3 4 6 7 8 10 11 9 13 9 10 11 11 12 12 12 11 11 10 11 12 14 12 6 2 7 4 8 10 15 14 15
7 6 6 5 6 4 5 7 8 7 6 7 10 10 9 9 5 6 3 3 7 11 12 12 14 14 13 13 14 11 9 9 10 6 6 11 1 6 9 11 13 16 16
6 7 5 6 5 5 3 3 2 0 3 4 5 5 7 5 6 7 9 6 10 10 12 13 14 14 12 12 10 11 9 7 6 6 6 8 2 8 9 12 12 15 17
7 6 6 6 4 4 4 3 3 3 3 2 4 5 5 6 3 5 5 4 3 7 6 5 6 7 10 7 8 7 6 7 6 5 5 7 5 10 12 14 14 16 18
5 4 6 7 5 5 4 5 4 4 4 4 6 6 4 4 3 5 5 5 4 4 6 5 5 5 7 6 7 10 9 8 6 5 5 7 5 9 12 14 15 14 14
5 5 6 5 5 4 4 4 5 5 5 6 4 5 5 6 6 6 6 7 6 6 6 7 5 6 6 6 9 10 9 8 8 6 6 10 7 8 11 14 15 13 15
5 5 6 6 5 5 4 4 3 3 4 4 4 7 6 6 5 6 7 7 7 7 8 8 6 7 6 5 7 6 7 7 7 7 7 5 12 8 8 10 13 13 12
6 5 5 5 5 4 3 4 4 4 5 5 5 4 5 5 5 6 6 6 5 6 8 7 7 6 7 6 5 6 6 6 6 6 7 8 5 11 4 7 10 11 10
6 6 5 5 5 5 5 5 5 5 6 5 5 5 6 6 6 8 7 6 6 5 5 6 6 8 6 7 5 6 5 5 6 7 8 6 7 7 9 8 4 8 9
4 4 4 5 5 6 5 6 6 6 7 6 6 6 6 7 8 8 7 8 6 7 6 7 6 6 6 6 8 5 5 6 6 8 5 6 3 6 5 9 7 6 9
2 4 5 6 6 7 6 6 7 7 8 6 6 6 7 8 7 9 8 8 8 9 8 7 7 8 6 5 9 8 6 5 4 6 3 4 3 2 3 5 7 8 9
5 6 7 8 8 7 8 8 8 9 8 8 7 7 9 8 8 7 9 9 9 10 8 9 8 10 9 7 8 7 4 5 5 2 5 3 1 2 4 3 3 5 9
7 7 8 9 9 8 8 7 7 8 9 10 9 7 8 8 10 9 10 9 11 9 12 10 9 9 10 9 8 12 10 8 9 6 2 3 1 4 4 4 3 4 6
8 9 9 10 10 9 9 9 9 9 11 10 9 10 9 12 12 11 11 10 11 11 11 11 11 11 10 10 9 9 10 11 10 3 4 3 2 3 5 3 4 1 7
9 9 8 9 9 8 8 8 9 9 10 9 10 9 10 13 14 13 13 12 12 11 13 11 12 12 10 10 9 7 9 12 9 9 5 3 0 2 3 4 4 5 4
7 6 5 6 5 6 6 7 8 10 10 10 10 14 14 15 15 16 15 14 13 11 12 14 13 13 12 11 11 7 6 9 10 13 12 4 4 4 2 3 4 5 7
4 6 5 6 6 6 8 10 11 12 13 12 14 14 13 12 12 14 14 13 13 13 14 13 15 15 13 12 12 8 7 7 8 9 10 9 2 2 4 3 1 6 6
Wind_Direction
148 121 153 158 150 134 130 128 121 115 110 108 105 103 99 96 94 92 89 84 84 85 86 85 77 72 72 72 69 68 67 70 77 74 83 87 85 88 90 108 251 99 98
126 132 147 153 150 135 127 123 112 109 110 113 114 111 108 107 101 95 93 94 89 85 82 83 83 85 73 62 54 50 51 55 52 45 97 138 119 107 100 55 357 86 106
128 127 159 150 152 136 122 118 117 117 115 118 120 119 116 112 111 109 106 100 97 93 89 86 84 76 72 65 55 35 15 3 349 337 297 280 106 135 134 124 81 98 101
115 145 145 140 151 148 132 124 123 124 126 129 131 132 134 134 132 131 130 131 136 137 135 132 127 126 111 51 21 354 332 324 316 307 265 142 118 143 166 174 169 160 150
133 127 95 125 139 149 143 134 125 129 136 141 144 148 148 150 155 159 155 155 168 178 179 177 183 199 206 221 264 278 281 288 295 278 287 283 300 137 164 197 191 191 213
89 109 116 131 130 123 126 119 124 135 149 160 163 166 180 186 199 203 203 200 217 224 230 229 227 224 240 268 277 285 296 299 295 265 225 196 255 116 170 207 240 226 196
81 105 116 117 130 147 147 148 146 131 90 287 261 243 225 231 237 250 257 265 266 273 274 274 267 262 254 252 268 279 288 294 286 299 301 248 269 116 201 227 219 214 203
90 97 119 113 123 137 149 155 160 166 176 192 210 217 227 228 236 244 256 259 266 273 280 282 277 267 265 259 252 254 264 273 281 268 276 271 123 128 244 242 215 213 215
96 100 109 131 135 131 128 161 178 187 175 218 245 259 261 258 262 262 259 257 254 261 262 263 266 268 257 253 255 258 258 263 277 277 289 276 87 138 241 236 215 210 209
98 101 128 172 135 180 148 123 134 168 176 221 239 247 253 258 242 243 245 240 258 272 273 266 261 257 254 248 242 241 252 258 258 261 270 293 24 310 263 243 228 217 216
103 88 72 84 108 108 84 119 179 177 199 216 216 212 234 248 258 245 156 309 284 273 275 273 269 260 255 253 242 235 246 254 261 269 283 109 140 266 255 242 234 222 219
77 77 54 56 85 83 72 49 86 311 329 331 312 296 267 277 282 308 290 265 264 269 269 258 256 257 248 253 202 199 232 261 277 274 278 106 270 274 271 250 236 228 222
83 70 76 96 74 12 36 345 19 1 353 345 322 311 312 302 285 262 282 257 280 194 277 260 252 245 265 310 299 278 290 269 259 260 254 133 237 267 269 262 247 234 224
108 99 91 83 76 37 9 23 39 33 20 19 24 343 359 324 330 322 307 318 279 311 309 296 290 315 262 268 285 279 264 267 269 273 265 145 239 265 268 258 255 244 229
128 110 100 92 75 60 28 35 27 7 22 9 356 17 345 334 343 323 334 315 320 314 293 290 279 265 288 260 251 249 271 289 288 276 279 153 217 263 273 262 253 253 237
126 126 104 99 97 83 58 38 360 18 352 354 354 10 342 333 348 322 323 333 323 326 321 311 329 309 288 273 249 251 265 279 277 292 281 272 186 222 265 272 256 249 228
121 105 97 92 73 34 28 356 7 352 348 345 353 5 336 325 339 317 333 313 330 325 306 305 301 281 276 266 247 251 267 262 272 281 277 276 259 183 193 294 267 244 231
98 87 52 30 20 16 9 344 337 340 324 320 326 325 343 329 336 307 328 329 341 304 300 304 308 304 299 304 301 282 301 287 281 273 264 286 282 290 127 38 298 223 214
79 30 26 359 354 347 350 331 313 307 293 309 307 317 6 320 325 316 323 326 312 310 305 308 295 311 305 296 292 285 299 298 285 271 314 281 259 259 288 95 69 92 136
323 344 326 314 314 324 311 292 288 285 280 297 304 314 312 316 320 318 315 305 297 299 300 299 313 300 308 328 323 333 313 310 331 280 246 236 37 321 307 302 157 105 99
283 297 306 312 312 318 305 315 297 295 312 289 297 307 310 330 329 319 306 303 294 285 304 301 282 292 285 243 261 245 256 280 255 289 283 238 147 108 84 35 283 132 122
278 289 292 298 302 307 302 316 297 301 293 301 295 278 285 329 323 312 316 302 294 291 289 278 279 288 290 291 281 290 273 234 221 231 211 252 191 65 62 22 264 178 147
284 283 285 299 304 303 308 290 279 278 266 267 302 325 333 321 317 317 311 306 297 281 272 266 269 270 280 289 283 283 280 259 268 176 200 114 325 112 98 47 324 230 124
281 295 311 315 319 314 339 322 341 303 310 337 289 309 316 305 311 302 299 298 293 295 294 283 267 257 270 276 274 238 268 292 287 251 211 173 79 293 76 107 41 14 87
326 309 310 326 344 358 349 344 324 321 319 316 312 309 306 287 291 296 296 296 289 282 285 289 280 271 265 244 265 260 241 266 249 258 247 236 346 299 25 66 80 65 70
315 316 320 328 332 340 333 326 322 318 316 313 310 302 298 307 305 296 298 300 298 295 283 282 275 264 258 258 252 244 237 243 244 232 248 240 156 336 299 96 97 104 88